Location: Lane
(33.5226°N, 79.8788°W)
Time: 04:38:44
(UTC+00:00)

Transit 2A Rocket - Pass Details

Date: 06 October 2022
Orbit: 589 x 911 km, 66.7° (Epoch: 27 November)

Event Time Altitude Azimuth Distance (km) Brightness Sun altitude
Exits shadow 09:58:48 24° 220° (SW) 1,255 5.7 -17.2°
Maximum altitude 10:01:19 65° 297° (WNW) 649 4.4 -16.7°
Drops below altitude 10° 10:05:34 10° 20° (NNE) 1,922 7.4 -15.8°
Sets 10:07:50 0° 23° (NNE) 2,838 8.3 -15.3°
